Time,TemperatureF,DewpointF,PressureIn,WindDirection,WindDirectionDegrees,WindSpeedMPH,WindSpeedGustMPH,Humidity,HourlyPrecipIn,Conditions,Clouds,dailyrainin,SoftwareType,DateUTC
2013-02-04 00:03:00,16.0,11.0,30.11,SSE,168,5.0,11.0,82,0.00,,,0.00,,2013-02-04 05:03:00,
2013-02-04 00:12:00,16.0,11.0,30.11,SSE,168,5.0,11.0,82,0.00,,,0.00,,2013-02-04 05:12:00,
2013-02-04 00:22:00,16.0,11.0,30.11,SSE,168,5.0,11.0,82,0.00,,,0.00,,2013-02-04 05:22:00,
2013-02-04 00:33:00,16.0,12.0,30.11,South,176,7.0,12.0,85,0.00,,,0.00,,2013-02-04 05:33:00,
2013-02-04 00:42:00,16.0,12.0,30.11,South,176,7.0,12.0,85,0.00,,,0.00,,2013-02-04 05:42:00,
2013-02-04 00:52:00,18.0,14.0,30.12,SSE,164,8.0,15.0,85,0.00,,,0.00,,2013-02-04 05:52:00,
2013-02-04 01:02:00,18.0,14.0,30.11,South,189,5.0,10.0,85,0.00,,,0.00,,2013-02-04 06:02:00,
2013-02-04 01:11:00,18.0,14.0,30.11,South,189,5.0,10.0,85,0.00,,,0.00,,2013-02-04 06:11:00,
2013-02-04 01:21:00,18.0,14.0,30.11,South,189,5.0,10.0,85,0.00,,,0.00,,2013-02-04 06:21:00,
2013-02-04 01:32:00,17.0,13.0,30.11,South,189,0.0,0.0,85,0.00,,,0.00,,2013-02-04 06:32:00,
2013-02-04 01:42:00,17.0,13.0,30.11,South,189,0.0,0.0,85,0.00,,,0.00,,2013-02-04 06:42:00,
2013-02-04 01:52:00,17.0,13.0,30.11,South,186,5.0,17.0,85,0.00,,,0.00,,2013-02-04 06:52:00,
2013-02-04 02:02:00,16.0,12.0,30.11,SSE,168,6.0,21.0,85,0.00,,,0.00,,2013-02-04 07:02:00,
2013-02-04 02:11:00,16.0,12.0,30.11,South,188,7.0,17.0,85,0.00,,,0.00,,2013-02-04 07:11:00,
2013-02-04 02:21:00,16.0,12.0,30.11,South,188,7.0,17.0,85,0.00,,,0.00,,2013-02-04 07:21:00,
2013-02-04 02:32:00,16.0,12.0,30.10,South,181,8.0,16.0,85,0.00,,,0.00,,2013-02-04 07:32:00,
2013-02-04 02:42:00,16.0,12.0,30.10,South,181,8.0,16.0,85,0.00,,,0.00,,2013-02-04 07:42:00,
2013-02-04 02:52:00,16.0,12.0,30.10,South,181,8.0,16.0,85,0.00,,,0.00,,2013-02-04 07:52:00,
2013-02-04 03:01:00,16.0,12.0,30.10,South,182,9.0,18.0,85,0.00,,,0.00,,2013-02-04 08:01:00,
2013-02-04 03:11:00,16.0,12.0,30.10,South,182,9.0,18.0,85,0.00,,,0.00,,2013-02-04 08:11:00,
2013-02-04 03:21:00,16.0,12.0,30.11,South,173,0.0,5.0,85,0.00,,,0.00,,2013-02-04 08:21:00,
2013-02-04 03:32:00,16.0,12.0,30.11,South,173,7.0,11.0,85,0.00,,,0.00,,2013-02-04 08:32:00,
2013-02-04 03:42:00,16.0,12.0,30.11,South,173,7.0,11.0,85,0.00,,,0.00,,2013-02-04 08:42:00,
2013-02-04 03:52:00,17.0,13.0,30.10,South,180,4.0,10.0,85,0.00,,,0.00,,2013-02-04 08:52:00,
2013-02-04 04:02:00,17.0,13.0,30.09,South,188,5.0,11.0,85,0.00,,,0.00,,2013-02-04 09:02:00,
2013-02-04 04:11:00,17.0,13.0,30.09,South,184,5.0,10.0,85,0.00,,,0.00,,2013-02-04 09:11:00,
2013-02-04 04:21:00,17.0,13.0,30.09,South,184,5.0,10.0,85,0.00,,,0.00,,2013-02-04 09:21:00,
2013-02-04 04:32:00,17.0,13.0,30.09,South,175,2.0,16.0,85,0.00,,,0.00,,2013-02-04 09:32:00,
2013-02-04 04:42:00,17.0,13.0,30.09,South,175,2.0,16.0,85,0.00,,,0.00,,2013-02-04 09:42:00,
2013-02-04 04:51:00,17.0,13.0,30.09,South,180,7.0,12.0,85,0.00,,,0.00,,2013-02-04 09:51:00,
2013-02-04 05:02:00,17.0,13.0,30.09,South,177,5.0,11.0,85,0.00,,,0.00,,2013-02-04 10:02:00,
2013-02-04 05:11:00,17.0,13.0,30.09,South,177,5.0,11.0,85,0.00,,,0.00,,2013-02-04 10:11:00,
2013-02-04 05:21:00,18.0,14.0,30.09,South,171,2.0,12.0,85,0.00,,,0.00,,2013-02-04 10:21:00,
2013-02-04 05:32:00,18.0,15.0,30.08,South,178,1.0,5.0,87,0.00,,,0.00,,2013-02-04 10:32:00,
2013-02-04 05:42:00,18.0,15.0,30.08,South,178,1.0,5.0,87,0.00,,,0.00,,2013-02-04 10:42:00,
2013-02-04 05:51:00,18.0,15.0,30.08,South,178,4.0,8.0,87,0.00,,,0.00,,2013-02-04 10:51:00,
2013-02-04 06:02:00,18.0,15.0,30.08,South,178,4.0,8.0,87,0.00,,,0.00,,2013-02-04 11:02:00,
2013-02-04 06:11:00,18.0,15.0,30.08,South,178,4.0,8.0,87,0.00,,,0.00,,2013-02-04 11:11:00,
2013-02-04 06:22:00,18.0,15.0,30.06,SSE,149,2.0,6.0,88,0.00,,,0.00,,2013-02-04 11:22:00,
2013-02-04 06:33:00,18.0,15.0,30.06,ESE,122,2.0,6.0,88,0.00,,,0.00,,2013-02-04 11:33:00,
2013-02-04 06:42:00,18.0,15.0,30.06,ESE,122,2.0,6.0,88,0.00,,,0.00,,2013-02-04 11:42:00,
2013-02-04 06:52:00,18.0,15.0,30.06,SSE,168,3.0,9.0,89,0.00,,,0.00,,2013-02-04 11:52:00,
2013-02-04 07:02:00,18.0,15.0,30.04,ESE,122,5.0,13.0,89,0.00,,,0.00,,2013-02-04 12:02:00,
2013-02-04 07:12:00,18.0,15.0,30.04,ESE,122,5.0,13.0,89,0.00,,,0.00,,2013-02-04 12:12:00,
2013-02-04 07:22:00,18.0,15.0,30.04,ESE,122,5.0,13.0,89,0.00,,,0.00,,2013-02-04 12:22:00,
2013-02-04 07:32:00,19.0,16.0,30.03,SE,130,4.0,12.0,89,0.00,,,0.00,,2013-02-04 12:32:00,
2013-02-04 07:42:00,19.0,16.0,30.03,SE,130,4.0,12.0,89,0.00,,,0.00,,2013-02-04 12:42:00,
2013-02-04 07:53:00,19.0,17.0,30.03,ESE,121,8.0,12.0,90,0.00,,,0.00,,2013-02-04 12:53:00,
2013-02-04 08:03:00,19.0,17.0,30.02,SE,124,4.0,7.0,90,0.00,,,0.00,,2013-02-04 13:03:00,
2013-02-04 08:12:00,20.0,18.0,30.03,SE,124,3.0,6.0,90,0.00,,,0.00,,2013-02-04 13:12:00,
2013-02-04 08:22:00,20.0,18.0,30.03,SE,124,3.0,6.0,90,0.00,,,0.00,,2013-02-04 13:22:00,
2013-02-04 08:33:00,20.0,18.0,30.02,SSE,163,3.0,10.0,90,0.00,,,0.00,,2013-02-04 13:33:00,
2013-02-04 08:42:00,20.0,18.0,30.02,SSE,163,3.0,10.0,90,0.00,,,0.00,,2013-02-04 13:42:00,
2013-02-04 08:52:00,20.0,18.0,30.03,SE,136,4.0,10.0,90,0.00,,,0.00,,2013-02-04 13:52:00,
2013-02-04 09:03:00,21.0,19.0,30.03,ESE,106,4.0,10.0,91,0.00,,,0.00,,2013-02-04 14:03:00,
2013-02-04 09:12:00,21.0,19.0,30.03,ESE,106,4.0,10.0,91,0.00,,,0.00,,2013-02-04 14:12:00,
2013-02-04 09:22:00,20.0,18.0,30.03,ESE,121,5.0,7.0,90,0.00,,,0.00,,2013-02-04 14:22:00,
2013-02-04 09:33:00,21.0,19.0,30.02,ESE,122,4.0,6.0,91,0.00,,,0.00,,2013-02-04 14:33:00,
2013-02-04 09:42:00,21.0,19.0,30.02,ESE,122,4.0,6.0,91,0.00,,,0.00,,2013-02-04 14:42:00,
2013-02-04 09:52:00,21.0,19.0,30.02,ESE,118,4.0,6.0,91,0.00,,,0.00,,2013-02-04 14:52:00,
2013-02-04 10:03:00,22.0,20.0,30.02,ESE,111,2.0,4.0,91,0.00,,,0.00,,2013-02-04 15:03:00,
2013-02-04 10:12:00,22.0,20.0,30.02,ESE,111,2.0,4.0,91,0.00,,,0.00,,2013-02-04 15:12:00,
2013-02-04 10:23:00,22.0,20.0,30.02,ENE,72,5.0,7.0,91,0.00,,,0.00,,2013-02-04 15:23:00,
2013-02-04 10:33:00,22.0,20.0,30.01,ENE,59,6.0,9.0,91,0.00,,,0.00,,2013-02-04 15:33:00,
2013-02-04 10:43:00,22.0,20.0,30.01,ENE,59,6.0,9.0,91,0.00,,,0.00,,2013-02-04 15:43:00,
2013-02-04 10:52:00,22.0,20.0,30.01,NE,46,5.0,14.0,91,0.00,,,0.00,,2013-02-04 15:52:00,
2013-02-04 11:03:00,23.0,21.0,29.99,NE,49,6.0,15.0,91,0.00,,,0.00,,2013-02-04 16:03:00,
2013-02-04 11:11:00,23.0,21.0,29.99,NE,49,6.0,15.0,91,0.00,,,0.00,,2013-02-04 16:11:00,
2013-02-04 11:22:00,23.0,21.0,29.99,NE,56,7.0,10.0,90,0.00,,,0.00,,2013-02-04 16:22:00,
2013-02-04 11:33:00,24.0,22.0,29.99,NE,48,6.0,9.0,90,0.00,,,0.00,,2013-02-04 16:33:00,
2013-02-04 11:42:00,24.0,22.0,29.99,NE,48,6.0,9.0,90,0.00,,,0.00,,2013-02-04 16:42:00,
2013-02-04 11:51:00,24.0,21.0,29.99,NNE,33,7.0,10.0,89,0.00,,,0.00,,2013-02-04 16:51:00,
2013-02-04 12:02:00,24.0,21.0,29.98,NE,53,8.0,11.0,88,0.00,,,0.00,,2013-02-04 17:02:00,
2013-02-04 12:11:00,24.0,21.0,29.98,NE,53,8.0,11.0,88,0.00,,,0.00,,2013-02-04 17:11:00,
2013-02-04 12:21:00,24.0,21.0,29.97,ENE,60,9.0,12.0,88,0.00,,,0.00,,2013-02-04 17:21:00,
2013-02-04 12:32:00,24.0,21.0,29.96,ENE,74,6.0,9.0,88,0.00,,,0.00,,2013-02-04 17:32:00,
2013-02-04 12:42:00,24.0,21.0,29.96,NE,56,6.0,13.0,88,0.00,,,0.00,,2013-02-04 17:42:00,
2013-02-04 12:51:00,24.0,21.0,29.96,NE,56,6.0,13.0,88,0.00,,,0.00,,2013-02-04 17:51:00,
2013-02-04 13:03:00,24.0,21.0,29.95,East,84,6.0,10.0,89,0.00,,,0.00,,2013-02-04 18:03:00,
2013-02-04 13:11:00,24.0,21.0,29.95,East,84,6.0,10.0,89,0.00,,,0.00,,2013-02-04 18:11:00,
2013-02-04 13:22:00,24.0,22.0,29.94,ESE,107,8.0,11.0,90,0.00,,,0.00,,2013-02-04 18:22:00,
2013-02-04 13:32:00,25.0,22.0,29.93,ESE,107,5.0,11.0,90,0.00,,,0.00,,2013-02-04 18:32:00,
2013-02-04 13:42:00,25.0,22.0,29.93,ESE,107,5.0,11.0,90,0.00,,,0.00,,2013-02-04 18:42:00,
2013-02-04 13:52:00,25.0,23.0,29.92,East,100,5.0,10.0,91,0.00,,,0.00,,2013-02-04 18:52:00,
2013-02-04 14:02:00,25.0,23.0,29.91,ESE,106,6.0,10.0,91,0.00,,,0.00,,2013-02-04 19:02:00,
2013-02-04 14:11:00,25.0,23.0,29.91,ESE,106,6.0,10.0,91,0.00,,,0.00,,2013-02-04 19:11:00,
2013-02-04 14:22:00,26.0,24.0,29.91,ESE,117,6.0,10.0,91,0.00,,,0.00,,2013-02-04 19:22:00,
2013-02-04 14:32:00,26.0,24.0,29.91,ESE,113,7.0,13.0,91,0.00,,,0.00,,2013-02-04 19:32:00,
2013-02-04 14:42:00,26.0,24.0,29.91,ESE,113,7.0,13.0,91,0.00,,,0.00,,2013-02-04 19:42:00,
2013-02-04 14:52:00,26.0,24.0,29.91,ESE,113,7.0,13.0,91,0.00,,,0.00,,2013-02-04 19:52:00,
2013-02-04 15:02:00,26.0,24.0,29.89,ESE,114,6.0,9.0,91,0.00,,,0.00,,2013-02-04 20:02:00,
2013-02-04 15:12:00,26.0,24.0,29.89,ESE,114,6.0,9.0,91,0.00,,,0.00,,2013-02-04 20:12:00,
2013-02-04 15:22:00,26.0,24.0,29.89,ESE,117,5.0,8.0,91,0.00,,,0.00,,2013-02-04 20:22:00,
2013-02-04 15:32:00,27.0,25.0,29.89,SE,130,4.0,6.0,91,0.00,,,0.00,,2013-02-04 20:32:00,
2013-02-04 15:42:00,27.0,25.0,29.89,SE,130,4.0,6.0,91,0.00,,,0.00,,2013-02-04 20:42:00,
2013-02-04 15:52:00,27.0,25.0,29.89,SE,125,3.0,5.0,91,0.00,,,0.00,,2013-02-04 20:52:00,
2013-02-04 16:03:00,27.0,25.0,29.89,ESE,123,3.0,4.0,91,0.00,,,0.00,,2013-02-04 21:03:00,
2013-02-04 16:11:00,27.0,25.0,29.89,ESE,123,3.0,4.0,91,0.00,,,0.00,,2013-02-04 21:11:00,
2013-02-04 16:22:00,27.0,25.0,29.89,ESE,123,3.0,4.0,91,0.00,,,0.00,,2013-02-04 21:22:00,
2013-02-04 16:32:00,27.0,25.0,29.89,SE,125,2.0,4.0,91,0.00,,,0.00,,2013-02-04 21:32:00,
2013-02-04 16:42:00,27.0,25.0,29.89,SE,125,2.0,4.0,91,0.00,,,0.00,,2013-02-04 21:42:00,
2013-02-04 16:52:00,27.0,25.0,29.89,SE,125,3.0,5.0,91,0.00,,,0.00,,2013-02-04 21:52:00,
2013-02-04 17:03:00,27.0,25.0,29.88,SE,125,2.0,3.0,91,0.00,,,0.00,,2013-02-04 22:03:00,
2013-02-04 17:12:00,27.0,25.0,29.88,SE,125,2.0,3.0,91,0.00,,,0.00,,2013-02-04 22:12:00,
2013-02-04 17:21:00,28.0,26.0,29.89,SE,125,0.0,1.0,91,0.00,,,0.00,,2013-02-04 22:21:00,
2013-02-04 17:32:00,28.0,26.0,29.88,ESE,123,0.0,0.0,91,0.00,,,0.00,,2013-02-04 22:32:00,
2013-02-04 17:42:00,28.0,26.0,29.88,ESE,123,0.0,0.0,91,0.00,,,0.00,,2013-02-04 22:42:00,
2013-02-04 17:51:00,28.0,26.0,29.88,ESE,123,0.0,0.0,91,0.00,,,0.00,,2013-02-04 22:51:00,
2013-02-04 18:02:00,27.0,25.0,29.89,SE,124,1.0,2.0,91,0.00,,,0.00,,2013-02-04 23:02:00,
2013-02-04 18:11:00,27.0,25.0,29.89,SE,124,1.0,2.0,91,0.00,,,0.00,,2013-02-04 23:11:00,
2013-02-04 18:22:00,28.0,26.0,29.89,SE,125,0.0,0.0,91,0.00,,,0.00,,2013-02-04 23:22:00,
2013-02-04 18:32:00,28.0,26.0,29.88,SE,125,1.0,3.0,91,0.00,,,0.00,,2013-02-04 23:32:00,
2013-02-04 18:42:00,28.0,26.0,29.88,SE,125,1.0,3.0,91,0.00,,,0.00,,2013-02-04 23:42:00,
2013-02-04 18:52:00,28.0,26.0,29.88,SE,125,1.0,3.0,91,0.00,,,0.00,,2013-02-04 23:52:00,
2013-02-04 19:02:00,26.0,24.0,29.88,North,355,2.0,4.0,91,0.00,,,0.00,,2013-02-05 00:02:00,
2013-02-04 19:11:00,26.0,24.0,29.88,North,355,2.0,4.0,91,0.00,,,0.00,,2013-02-05 00:11:00,
2013-02-04 19:22:00,26.0,24.0,29.88,North,355,1.0,6.0,91,0.00,,,0.00,,2013-02-05 00:22:00,
2013-02-04 19:32:00,25.0,22.0,29.88,North,355,2.0,10.0,90,0.00,,,0.00,,2013-02-05 00:32:00,
2013-02-04 19:42:00,25.0,22.0,29.88,North,355,2.0,10.0,90,0.00,,,0.00,,2013-02-05 00:42:00,
2013-02-04 19:52:00,23.0,21.0,29.88,NNW,341,3.0,4.0,91,0.00,,,0.00,,2013-02-05 00:52:00,
2013-02-04 20:02:00,23.0,21.0,29.91,NW,304,3.0,4.0,91,0.00,,,0.00,,2013-02-05 01:02:00,
2013-02-04 20:12:00,23.0,21.0,29.91,NW,304,3.0,4.0,91,0.00,,,0.00,,2013-02-05 01:12:00,
2013-02-04 20:22:00,24.0,22.0,29.91,NNW,327,4.0,7.0,91,0.00,,,0.00,,2013-02-05 01:22:00,
2013-02-04 20:32:00,24.0,22.0,29.91,NW,319,0.0,9.0,91,0.00,,,0.00,,2013-02-05 01:32:00,
2013-02-04 20:42:00,24.0,22.0,29.91,NW,319,0.0,9.0,91,0.00,,,0.00,,2013-02-05 01:42:00,
2013-02-04 20:52:00,24.0,22.0,29.91,NW,319,0.0,9.0,91,0.00,,,0.00,,2013-02-05 01:52:00,
2013-02-04 21:01:00,24.0,22.0,29.93,NNW,330,3.0,6.0,92,0.00,,,0.00,,2013-02-05 02:01:00,
2013-02-04 21:11:00,24.0,22.0,29.93,NNW,330,3.0,6.0,92,0.00,,,0.00,,2013-02-05 02:11:00,
2013-02-04 21:22:00,24.0,22.0,29.93,NW,314,4.0,6.0,92,0.00,,,0.00,,2013-02-05 02:22:00,
2013-02-04 21:32:00,24.0,22.0,29.93,NW,314,4.0,6.0,92,0.00,,,0.00,,2013-02-05 02:32:00,
2013-02-04 21:42:00,24.0,22.0,29.93,NW,314,4.0,6.0,92,0.00,,,0.00,,2013-02-05 02:42:00,
2013-02-04 21:52:00,24.0,22.0,29.93,NW,319,4.0,7.0,92,0.00,,,0.00,,2013-02-05 02:52:00,
2013-02-04 22:02:00,24.0,22.0,29.93,NW,319,4.0,7.0,92,0.00,,,0.00,,2013-02-05 03:02:00,
2013-02-04 22:11:00,24.0,22.0,29.93,NW,319,4.0,7.0,92,0.00,,,0.00,,2013-02-05 03:11:00,
2013-02-04 22:21:00,24.0,22.0,29.93,NW,319,4.0,7.0,92,0.00,,,0.00,,2013-02-05 03:21:00,
2013-02-04 23:22:00,23.0,21.0,29.93,NNW,341,3.0,6.0,92,0.00,,,0.00,,2013-02-05 04:22:00,
2013-02-04 23:32:00,23.0,21.0,29.93,NNW,341,3.0,6.0,92,0.00,,,0.00,,2013-02-05 04:32:00,
2013-02-04 23:42:00,23.0,21.0,29.93,NNW,341,3.0,6.0,92,0.00,,,0.00,,2013-02-05 04:42:00,
2013-02-04 23:52:00,23.0,21.0,29.93,NW,325,3.0,7.0,92,0.00,,,0.00,,2013-02-05 04:52:00,